Temp
-11 -11 -11 -11 -10 -10 -10 -10 -10 -9 -10 -11 -11 -10 -10 -10 -10 -10 -11 -10 -10 -10 -10 -10 -9 -9 -9 -9 -9 -9 -9 -9 -9 -8 -8 -8 -8 -8 -8 -8 -8 -8 -8 -8 -9 -9 -9 -9 -9
-11 -11 -10 -10 -10 -10 -10 -10 -10 -10 -10 -10 -11 -11 -10 -10 -10 -11 -11 -11 -10 -10 -10 -10 -9 -9 -9 -9 -9 -9 -9 -9 -9 -9 -9 -8 -8 -8 -8 -8 -8 -8 -9 -9 -9 -9 -9 -9 -9
-11 -11 -11 -10 -10 -10 -11 -10 -10 -11 -10 -10 -10 -11 -10 -10 -10 -11 -11 -11 -11 -10 -10 -9 -9 -9 -9 -9 -9 -9 -9 -9 -9 -9 -9 -9 -8 -8 -8 -8 -9 -9 -9 -9 -9 -9 -9 -10 -10
-11 -11 -11 -10 -10 -11 -11 -11 -10 -10 -10 -10 -10 -11 -10 -10 -10 -11 -11 -11 -11 -11 -10 -10 -9 -9 -9 -9 -9 -9 -9 -9 -9 -9 -9 -9 -8 -8 -8 -9 -9 -9 -9 -9 -9 -9 -10 -10 -10
-11 -11 -10 -10 -9 -11 -11 -11 -10 -11 -10 -10 -10 -11 -10 -10 -11 -11 -11 -11 -11 -11 -10 -10 -9 -9 -9 -9 -9 -9 -9 -9 -9 -9 -9 -8 -9 -9 -9 -9 -9 -9 -9 -9 -9 -9 -10 -10 -10
-11 -11 -10 -10 -10 -10 -11 -11 -11 -11 -10 -11 -11 -11 -11 -10 -10 -11 -11 -11 -11 -11 -10 -10 -9 -9 -9 -9 -9 -9 -9 -9 -9 -9 -9 -9 -9 -9 -9 -9 -9 -9 -9 -9 -9 -10 -10 -10 -10
-11 -11 -10 -10 -10 -11 -11 -11 -11 -11 -11 -11 -11 -11 -11 -10 -10 -11 -11 -11 -11 -10 -10 -10 -9 -9 -9 -9 -9 -9 -9 -9 -9 -9 -9 -9 -9 -9 -9 -9 -9 -9 -9 -9 -10 -10 -10 -10 -10
-11 -11 -11 -11 -10 -11 -12 -12 -11 -12 -11 -11 -11 -11 -12 -11 -10 -11 -11 -11 -11 -11 -10 -10 -10 -9 -9 -9 -9 -9 -9 -9 -9 -9 -9 -9 -9 -9 -9 -9 -9 -9 -9 -10 -10 -10 -10 -10 -10
-11 -11 -11 -11 -11 -11 -12 -13 -12 -11 -11 -11 -11 -11 -12 -11 -11 -11 -11 -11 -11 -11 -11 -10 -10 -9 -9 -9 -9 -9 -9 -9 -9 -9 -9 -9 -9 -9 -9 -9 -10 -9 -10 -10 -10 -10 -10 -10 -10
-11 -11 -11 -11 -12 -12 -12 -13 -13 -12 -11 -12 -11 -12 -11 -11 -11 -11 -11 -11 -11 -11 -11 -11 -10 -10 -9 -9 -9 -9 -9 -9 -9 -9 -9 -9 -9 -9 -9 -10 -10 -10 -10 -10 -10 -10 -10 -10 -10
-12 -11 -11 -11 -12 -12 -12 -12 -13 -13 -12 -12 -12 -11 -11 -11 -11 -11 -11 -11 -11 -10 -10 -10 -10 -10 -9 -9 -9 -9 -9 -9 -9 -9 -9 -9 -9 -9 -9 -10 -10 -10 -10 -10 -10 -10 -10 -10 -10
-12 -12 -12 -12 -12 -12 -12 -12 -12 -13 -13 -12 -12 -12 -11 -11 -11 -10 -11 -11 -11 -11 -10 -10 -9 -9 -9 -9 -9 -9 -9 -9 -9 -9 -9 -9 -9 -10 -10 -10 -10 -10 -10 -10 -10 -11 -11 -11 -11
-12 -12 -12 -12 -12 -12 -12 -12 -12 -12 -13 -13 -12 -12 -12 -12 -11 -11 -10 -11 -11 -10 -10 -10 -9 -9 -9 -9 -9 -9 -9 -9 -9 -9 -9 -9 -10 -10 -10 -10 -10 -10 -10 -10 -11 -11 -11 -11 -11
-12 -12 -12 -12 -12 -12 -12 -12 -11 -12 -13 -13 -12 -12 -12 -13 -12 -11 -11 -11 -11 -11 -10 -10 -10 -10 -9 -9 -9 -9 -9 -9 -9 -9 -10 -10 -10 -10 -10 -10 -10 -10 -10 -11 -11 -11 -11 -11 -11
-12 -12 -12 -12 -12 -12 -12 -12 -10 -11 -12 -13 -12 -12 -13 -12 -12 -13 -12 -11 -11 -10 -10 -10 -10 -10 -9 -9 -9 -9 -9 -9 -9 -10 -10 -10 -10 -10 -11 -11 -11 -11 -11 -11 -11 -11 -11 -11 -11
-13 -12 -12 -13 -13 -13 -13 -11 -12 -12 -12 -13 -12 -12 -12 -13 -13 -13 -12 -12 -11 -11 -11 -10 -10 -10 -10 -9 -9 -9 -9 -9 -9 -10 -10 -10 -10 -11 -11 -11 -11 -11 -11 -11 -11 -11 -11 -11 -11
-13 -12 -12 -13 -14 -13 -13 -11 -12 -13 -12 -13 -13 -12 -12 -13 -13 -13 -13 -12 -12 -11 -11 -10 -10 -10 -10 -10 -9 -9 -9 -9 -9 -10 -10 -10 -11 -11 -11 -11 -11 -11 -11 -11 -11 -11 -11 -12 -12
-16 -16 -16 -15 -16 -15 -13 -12 -12 -13 -13 -13 -14 -14 -13 -13 -13 -13 -13 -13 -12 -12 -11 -11 -10 -10 -10 -10 -9 -9 -9 -10 -10 -10 -10 -11 -11 -11 -11 -11 -11 -11 -12 -12 -12 -12 -12 -12 -12
-18 -17 -16 -16 -16 -17 -14 -13 -13 -13 -13 -13 -13 -14 -13 -13 -13 -13 -13 -13 -12 -12 -11 -11 -11 -11 -10 -10 -10 -10 -10 -10 -10 -10 -10 -11 -11 -11 -12 -12 -12 -12 -12 -12 -12 -12 -12 -12 -12
-18 -18 -18 -17 -17 -18 -17 -14 -13 -13 -13 -14 -14 -13 -14 -14 -13 -13 -13 -13 -13 -12 -12 -11 -11 -11 -10 -10 -10 -10 -10 -10 -10 -10 -10 -11 -11 -11 -12 -12 -12 -12 -12 -12 -12 -12 -12 -13 -13
-20 -19 -18 -18 -18 -19 -18 -15 -14 -13 -13 -13 -13 -13 -13 -14 -13 -13 -13 -13 -13 -13 -12 -12 -11 -11 -11 -11 -10 -10 -10 -10 -10 -11 -11 -11 -11 -11 -12 -12 -12 -13 -13 -13 -12 -12 -13 -13 -13
-22 -22 -22 -21 -20 -19 -20 -18 -15 -13 -13 -13 -13 -13 -12 -13 -13 -13 -13 -12 -13 -13 -13 -12 -12 -11 -11 -10 -10 -10 -10 -11 -11 -11 -10 -11 -11 -12 -12 -12 -12 -13 -13 -13 -13 -13 -13 -13 -13
-22 -23 -23 -23 -21 -19 -19 -19 -15 -14 -13 -13 -13 -13 -13 -13 -13 -13 -13 -13 -13 -13 -13 -12 -11 -11 -11 -11 -10 -10 -10 -11 -11 -11 -11 -11 -12 -12 -12 -12 -12 -13 -13 -12 -12 -13 -13 -13 -13
-23 -23 -24 -24 -23 -21 -18 -20 -15 -14 -13 -13 -13 -13 -13 -14 -13 -13 -13 -13 -13 -13 -13 -13 -12 -11 -11 -11 -11 -11 -11 -11 -11 -11 -11 -12 -12 -12 -12 -12 -12 -13 -13 -12 -13 -13 -13 -13 -13
-24 -24 -24 -24 -23 -19 -19 -19 -16 -15 -14 -13 -13 -14 -14 -13 -14 -13 -13 -13 -13 -13 -13 -13 -12 -11 -11 -11 -11 -11 -12 -12 -12 -12 -12 -12 -12 -12 -13 -12 -12 -12 -13 -13 -13 -13 -13 -13 -13
-24 -24 -24 -23 -20 -18 -18 -18 -16 -15 -14 -14 -13 -14 -14 -14 -14 -13 -13 -13 -13 -13 -14 -13 -13 -12 -12 -12 -12 -12 -12 -12 -12 -12 -12 -12 -12 -13 -12 -12 -12 -12 -12 -13 -13 -13 -13 -13 -14
-23 -24 -24 -23 -20 -19 -18 -17 -16 -15 -14 -14 -14 -14 -14 -14 -14 -13 -13 -13 -13 -13 -13 -14 -13 -13 -13 -13 -13 -14 -13 -12 -13 -13 -13 -12 -12 -12 -12 -12 -12 -12 -12 -13 -13 -13 -13 -13 -14
-24 -23 -22 -20 -19 -18 -16 -16 -15 -15 -15 -14 -14 -14 -14 -14 -14 -13 -13 -14 -13 -13 -13 -13 -14 -13 -13 -13 -13 -13 -13 -13 -13 -13 -13 -12 -12 -12 -12 -12 -12 -12 -13 -13 -13 -13 -13 -14 -14
-22 -21 -20 -19 -18 -16 -17 -16 -15 -15 -15 -15 -16 -14 -14 -14 -14 -13 -13 -14 -13 -14 -13 -13 -13 -14 -13 -13 -13 -13 -13 -13 -13 -13 -13 -12 -12 -12 -12 -12 -12 -13 -13 -13 -13 -14 -14 -14 -14
-20 -20 -18 -19 -17 -16 -16 -16 -15 -15 -15 -15 -16 -15 -14 -14 -14 -14 -13 -14 -14 -14 -13 -13 -14 -13 -14 -13 -13 -13 -13 -13 -13 -13 -13 -12 -11 -12 -13 -13 -13 -13 -13 -13 -13 -13 -14 -14 -14
Height
5807 5809 5811 5813 5817 5818 5820 5823 5823 5826 5829 5831 5832 5834 5835 5837 5838 5843 5842 5844 5847 5849 5851 5853 5855 5856 5856 5857 5858 5859 5860 5862 5864 5865 5866 5867 5868 5869 5869 5869 5868 5867 5866 5866 5864 5862 5860 5858 5857
5804 5806 5807 5809 5811 5815 5818 5819 5822 5823 5826 5829 5830 5831 5833 5836 5837 5839 5841 5843 5847 5849 5851 5854 5856 5857 5857 5858 5859 5860 5861 5863 5864 5865 5867 5868 5869 5869 5869 5869 5868 5867 5866 5864 5863 5861 5859 5857 5856
5799 5802 5805 5805 5806 5813 5816 5817 5819 5821 5823 5827 5829 5829 5832 5835 5836 5837 5840 5843 5845 5848 5851 5853 5856 5858 5859 5859 5860 5861 5862 5864 5865 5866 5867 5868 5869 5869 5869 5868 5867 5866 5865 5863 5861 5860 5859 5857 5855
5794 5798 5801 5802 5806 5810 5813 5813 5816 5817 5821 5824 5826 5827 5830 5832 5835 5836 5838 5841 5844 5846 5849 5852 5855 5857 5859 5860 5861 5862 5863 5864 5865 5866 5867 5868 5869 5869 5869 5868 5867 5866 5865 5863 5861 5859 5858 5856 5855
5790 5791 5794 5798 5803 5807 5808 5808 5813 5814 5819 5821 5824 5825 5827 5830 5833 5834 5836 5839 5842 5845 5848 5851 5853 5856 5858 5860 5861 5862 5863 5864 5865 5866 5867 5868 5869 5868 5868 5867 5867 5865 5864 5862 5860 5858 5858 5856 5855
5786 5787 5789 5794 5799 5803 5805 5804 5807 5811 5816 5818 5821 5823 5825 5828 5830 5832 5834 5837 5840 5843 5846 5849 5852 5854 5857 5859 5860 5862 5864 5864 5866 5866 5867 5868 5868 5868 5867 5866 5866 5865 5863 5861 5859 5858 5857 5855 5853
5781 5782 5784 5788 5793 5797 5801 5800 5803 5807 5811 5814 5817 5819 5822 5826 5827 5829 5832 5835 5838 5841 5844 5848 5850 5852 5855 5857 5859 5862 5863 5864 5865 5866 5867 5867 5867 5867 5866 5866 5865 5864 5862 5860 5858 5857 5855 5854 5852
5775 5776 5779 5782 5787 5793 5794 5794 5798 5801 5805 5808 5811 5818 5818 5820 5823 5826 5829 5833 5836 5839 5842 5845 5848 5850 5853 5855 5858 5860 5862 5863 5865 5865 5866 5866 5866 5866 5865 5865 5864 5863 5861 5859 5857 5856 5854 5852 5851
5768 5769 5775 5779 5780 5785 5788 5788 5791 5795 5801 5804 5808 5811 5813 5817 5820 5824 5826 5830 5833 5837 5840 5843 5846 5848 5851 5853 5856 5858 5860 5862 5863 5863 5864 5865 5865 5865 5863 5863 5862 5861 5859 5858 5856 5855 5854 5852 5850
5759 5764 5770 5774 5774 5776 5779 5782 5785 5790 5796 5800 5805 5807 5811 5814 5815 5820 5823 5825 5829 5832 5835 5838 5842 5844 5848 5851 5853 5855 5858 5859 5861 5861 5863 5863 5863 5863 5862 5861 5861 5860 5858 5856 5855 5854 5852 5851 5849
5752 5756 5763 5766 5768 5769 5773 5774 5777 5783 5788 5797 5801 5802 5805 5807 5810 5814 5818 5821 5823 5826 5830 5834 5836 5840 5844 5848 5850 5853 5855 5857 5858 5859 5860 5861 5861 5860 5860 5859 5859 5858 5857 5855 5853 5851 5850 5848 5847
5738 5745 5753 5759 5760 5764 5766 5768 5770 5774 5782 5791 5794 5796 5799 5802 5807 5810 5813 5816 5818 5823 5827 5831 5834 5837 5840 5844 5847 5850 5851 5853 5855 5856 5857 5858 5858 5858 5857 5857 5856 5855 5854 5852 5850 5849 5847 5845 5844
5728 5735 5742 5749 5753 5757 5759 5761 5762 5767 5773 5783 5788 5791 5795 5800 5803 5806 5809 5813 5816 5819 5822 5825 5829 5832 5836 5840 5843 5846 5848 5850 5851 5852 5854 5855 5855 5855 5855 5855 5854 5853 5851 5850 5848 5846 5844 5843 5841
5718 5723 5732 5740 5745 5748 5751 5751 5754 5763 5765 5774 5780 5785 5790 5793 5797 5800 5804 5809 5812 5814 5817 5820 5824 5827 5831 5835 5839 5842 5844 5846 5847 5849 5851 5852 5852 5852 5851 5852 5851 5850 5848 5847 5846 5844 5842 5840 5837
5709 5712 5720 5730 5735 5738 5739 5740 5747 5755 5758 5764 5771 5776 5783 5787 5790 5796 5797 5800 5804 5808 5810 5814 5818 5822 5826 5830 5834 5837 5840 5841 5843 5845 5847 5848 5848 5848 5848 5848 5847 5846 5845 5844 5843 5841 5838 5836 5833
5698 5701 5705 5714 5721 5724 5725 5734 5740 5746 5749 5756 5763 5768 5775 5782 5784 5788 5791 5795 5799 5802 5807 5809 5812 5816 5820 5824 5828 5832 5835 5837 5839 5841 5843 5844 5844 5844 5845 5845 5844 5843 5841 5840 5839 5837 5834 5832 5829
5684 5686 5687 5692 5703 5708 5714 5727 5731 5733 5737 5743 5754 5759 5767 5773 5777 5782 5787 5790 5793 5794 5798 5802 5806 5809 5813 5818 5823 5826 5829 5832 5834 5836 5838 5840 5840 5840 5841 5841 5840 5839 5838 5836 5835 5833 5830 5828 5825
5669 5670 5673 5678 5688 5695 5701 5710 5720 5722 5726 5733 5741 5750 5757 5765 5772 5774 5779 5782 5786 5788 5791 5795 5799 5802 5807 5811 5816 5820 5824 5827 5830 5831 5833 5835 5836 5837 5837 5836 5836 5835 5833 5832 5830 5828 5826 5824 5820
5652 5654 5654 5665 5672 5676 5688 5695 5702 5711 5715 5720 5728 5738 5749 5757 5764 5766 5770 5775 5780 5783 5787 5792 5795 5797 5801 5807 5811 5815 5819 5822 5824 5826 5829 5830 5832 5833 5832 5832 5831 5830 5828 5826 5825 5823 5821 5818 5814
5635 5638 5643 5650 5658 5656 5669 5676 5689 5693 5703 5709 5717 5727 5738 5749 5756 5761 5764 5769 5775 5776 5781 5785 5788 5790 5795 5800 5804 5809 5812 5815 5818 5821 5824 5825 5827 5827 5828 5827 5826 5824 5823 5821 5820 5818 5815 5813 5809
5618 5619 5632 5634 5641 5642 5651 5657 5669 5685 5695 5700 5707 5718 5727 5738 5749 5753 5758 5764 5768 5772 5776 5778 5781 5784 5787 5792 5797 5801 5805 5810 5815 5817 5818 5819 5821 5822 5822 5821 5820 5820 5818 5816 5814 5812 5810 5806 5804
5599 5611 5614 5616 5624 5628 5636 5638 5653 5669 5682 5688 5698 5706 5719 5730 5740 5746 5752 5757 5763 5769 5770 5773 5776 5779 5782 5786 5792 5796 5800 5804 5807 5809 5812 5814 5815 5816 5816 5816 5815 5814 5812 5811 5808 5806 5804 5800 5797
5592 5594 5594 5599 5608 5611 5626 5630 5647 5659 5670 5682 5693 5701 5712 5723 5731 5737 5744 5752 5759 5760 5765 5768 5769 5773 5776 5782 5786 5790 5795 5797 5801 5804 5807 5809 5809 5810 5810 5809 5808 5807 5806 5804 5801 5799 5797 5794 5790
5581 5580 5583 5585 5592 5592 5620 5621 5632 5653 5674 5683 5685 5691 5701 5711 5722 5729 5738 5744 5748 5752 5756 5762 5766 5769 5772 5776 5781 5785 5789 5792 5795 5798 5801 5802 5802 5804 5804 5802 5801 5800 5798 5796 5793 5791 5789 5785 5781
5563 5569 5573 5578 5582 5587 5614 5613 5624 5649 5660 5669 5677 5684 5691 5699 5713 5720 5728 5736 5742 5748 5752 5757 5763 5766 5769 5771 5776 5780 5783 5786 5788 5790 5793 5795 5795 5797 5795 5795 5794 5792 5790 5787 5785 5783 5781 5778 5775
5555 5561 5567 5575 5580 5600 5612 5606 5627 5641 5649 5659 5668 5673 5678 5686 5702 5712 5721 5728 5734 5741 5746 5749 5756 5761 5764 5767 5769 5774 5777 5780 5781 5783 5785 5786 5788 5788 5786 5786 5785 5784 5782 5779 5777 5774 5772 5769 5765
5552 5551 5573 5574 5581 5597 5603 5616 5629 5638 5646 5655 5661 5665 5673 5682 5693 5705 5713 5719 5727 5732 5739 5742 5746 5752 5757 5761 5762 5766 5769 5772 5774 5775 5775 5776 5779 5779 5777 5776 5776 5775 5773 5770 5768 5766 5763 5760 5755
5551 5566 5570 5575 5582 5593 5599 5615 5626 5635 5642 5648 5654 5659 5666 5674 5681 5694 5703 5712 5720 5725 5730 5734 5738 5743 5748 5751 5754 5758 5761 5762 5765 5765 5766 5768 5769 5769 5768 5767 5768 5767 5765 5762 5760 5757 5755 5751 5746
5563 5562 5568 5573 5580 5588 5604 5613 5621 5629 5636 5640 5646 5653 5662 5667 5670 5681 5693 5702 5710 5716 5719 5725 5729 5734 5739 5744 5747 5749 5752 5752 5755 5756 5756 5758 5759 5759 5758 5756 5757 5758 5756 5754 5750 5748 5745 5741 5735
5565 5570 5576 5580 5586 5594 5602 5612 5619 5627 5632 5638 5641 5646 5651 5656 5662 5670 5681 5691 5699 5705 5712 5717 5720 5723 5728 5732 5735 5739 5741 5743 5744 5745 5747 5745 5748 5749 5748 5748 5747 5746 5744 5743 5740 5737 5734 5732 5726
Wind_Speed
25 26 25 30 30 26 23 20 17 13 10 10 9 12 14 20 23 19 17 17 14 12 11 9 13 17 17 18 18 16 19 19 18 17 14 13 11 10 11 11 12 12 11 12 15 14 14 14 14
27 26 23 29 32 28 25 23 19 16 13 12 16 15 17 22 25 21 18 18 16 13 11 11 14 15 17 15 13 17 18 18 16 14 12 10 9 10 10 11 11 11 12 15 15 13 13 13 14
27 33 30 28 33 26 25 25 22 21 16 14 14 17 18 23 26 23 20 19 18 16 13 13 15 15 13 11 15 17 17 16 14 12 9 7 8 8 9 10 9 11 15 18 15 14 14 13 14
24 34 35 33 27 28 28 28 26 23 18 14 12 19 20 24 26 25 22 20 20 19 17 15 17 17 13 13 15 16 16 14 11 9 6 5 6 7 9 10 10 13 18 17 15 14 13 12 14
18 26 38 35 29 25 30 32 29 25 22 17 10 17 23 24 26 27 25 23 22 20 19 18 19 17 14 13 16 17 16 13 10 7 4 3 5 7 9 8 9 13 17 15 14 13 11 14 16
25 21 32 39 34 30 32 36 33 28 24 19 17 16 24 24 27 29 28 25 25 23 21 19 20 19 16 14 16 17 16 13 10 6 2 2 5 8 10 8 11 14 16 15 14 12 13 15 16
31 27 23 33 40 37 34 37 36 31 29 23 20 17 23 26 27 31 29 28 25 24 22 20 20 20 18 16 16 16 16 14 10 6 4 4 6 8 10 7 10 15 16 15 12 11 12 14 16
34 33 27 23 37 39 38 40 39 36 33 29 28 19 24 29 29 30 30 28 27 26 24 22 22 22 21 17 17 18 17 15 11 9 7 7 9 10 11 8 11 15 17 14 12 11 12 14 16
36 38 31 24 28 40 41 43 44 43 36 32 26 25 29 28 30 28 29 29 28 25 24 23 23 24 22 20 18 19 18 17 14 12 10 10 11 11 11 8 11 15 17 15 12 10 11 13 15
41 38 32 29 25 37 42 44 47 46 41 35 25 28 26 29 32 30 28 28 29 28 27 26 26 26 25 22 20 19 19 18 17 15 12 12 13 12 12 9 12 15 17 16 14 11 12 13 15
41 40 35 31 32 31 44 45 50 49 47 35 27 31 28 29 35 32 31 30 31 33 32 31 30 28 27 24 22 19 20 19 18 16 15 14 14 14 11 10 13 16 17 16 14 12 12 14 16
46 42 39 36 36 32 38 50 51 53 49 41 36 33 32 29 29 34 33 33 32 30 32 31 30 29 28 26 24 21 20 21 20 18 17 15 16 15 12 11 14 18 19 16 13 13 14 15 17
51 46 43 39 40 39 34 47 52 56 51 47 45 37 28 24 27 32 34 33 32 30 31 33 32 33 31 28 25 23 21 21 21 20 17 17 17 16 13 12 14 18 19 16 14 14 16 17 17
52 52 47 43 43 44 42 40 53 54 56 52 51 46 35 29 26 30 30 32 33 33 32 33 34 33 31 30 27 25 23 22 22 21 19 18 17 16 13 13 15 17 18 16 14 14 16 17 18
56 56 53 49 46 46 48 49 45 52 54 58 53 52 46 37 33 25 30 32 34 35 36 35 35 34 33 32 30 27 26 24 23 22 21 19 18 15 14 14 16 19 19 16 16 16 16 17 18
57 60 60 55 51 50 53 46 44 44 50 59 59 54 48 41 34 34 31 31 33 33 33 35 36 35 34 35 32 30 28 27 25 23 21 20 18 16 14 15 18 21 20 18 17 17 18 19 20
63 66 65 63 55 56 56 49 47 46 51 55 61 59 51 45 39 37 31 30 32 33 34 35 35 37 37 36 34 32 31 28 27 24 22 20 18 15 15 17 19 21 20 19 19 19 20 21 23
50 54 56 58 54 56 59 59 54 51 52 56 62 60 54 48 41 39 35 36 33 34 33 35 35 38 38 38 37 35 32 28 27 25 22 21 18 15 16 19 21 21 20 20 20 20 22 24 26
54 55 60 59 56 53 62 63 60 57 52 58 65 64 57 51 44 44 40 37 34 32 29 31 32 33 37 37 36 34 31 30 29 25 23 21 19 16 17 21 22 22 21 21 22 23 25 27 29
62 61 61 62 53 57 59 65 62 63 58 58 64 68 63 51 49 45 43 38 34 30 29 30 30 32 35 37 37 34 33 31 29 25 22 21 20 18 19 22 24 23 23 24 25 26 28 30 32
59 66 62 63 57 54 58 68 66 63 61 56 60 68 69 56 51 49 45 39 36 31 28 30 31 32 34 35 37 35 33 29 23 21 24 23 21 21 22 24 25 26 26 26 28 30 31 32 33
48 48 49 57 57 65 62 63 67 64 61 58 56 63 65 61 54 52 47 42 37 30 30 30 32 32 33 35 34 33 30 27 27 29 26 22 24 24 25 27 27 28 29 29 30 31 33 33 35
45 40 42 49 53 67 63 63 65 65 63 58 49 57 62 62 58 55 50 43 36 35 31 32 34 34 32 31 32 31 29 28 29 25 22 25 27 28 27 29 30 30 31 32 34 36 36 37 39
46 47 42 50 55 64 60 61 66 62 53 55 50 55 60 63 64 57 52 46 42 39 37 33 33 33 31 29 30 27 27 27 29 26 26 28 30 29 29 32 33 33 34 35 36 37 38 39 41
39 38 42 47 46 55 47 46 58 54 52 55 51 50 52 63 65 59 54 49 42 39 36 33 32 30 29 29 27 25 25 28 30 30 29 31 31 32 34 35 36 36 37 38 39 40 43 40 44
29 38 36 43 49 38 39 36 40 47 49 51 49 47 51 62 65 59 53 49 43 38 38 39 33 30 29 27 24 25 31 31 33 34 33 34 34 37 39 39 38 38 40 41 43 43 46 46 46
27 44 33 29 48 35 25 27 39 34 40 46 43 45 51 55 66 60 55 50 46 40 39 40 37 36 33 33 37 37 36 36 35 37 40 39 39 40 43 45 41 40 41 44 47 48 50 49 52
24 29 38 43 38 14 27 29 28 33 31 32 34 44 55 57 59 65 58 53 47 43 40 41 40 38 38 41 41 39 39 40 39 42 44 41 39 42 45 54 46 42 41 43 46 48 55 49 51
23 33 39 35 10 14 22 22 16 18 18 18 29 36 45 53 57 66 62 57 49 47 46 43 43 41 41 41 42 44 44 45 44 45 46 44 43 44 43 42 41 42 44 46 47 49 50 56 46
32 36 16 12 7 3 17 27 22 16 12 19 25 29 36 39 52 60 63 60 57 53 52 46 45 47 45 44 44 47 48 48 48 48 50 51 51 46 49 39 39 43 47 48 48 49 48 50 61
Wind_Direction
247 233 244 241 244 241 246 248 247 245 245 254 263 244 223 196 188 178 182 183 184 200 193 167 156 155 150 142 139 135 132 129 124 117 108 92 77 61 48 36 22 14 25 16 358 360 6 2 359
245 234 228 244 241 238 244 247 248 243 240 247 252 240 226 203 191 185 192 190 192 196 202 171 165 164 152 147 145 140 137 134 130 121 104 89 70 52 40 24 14 27 18 6 358 360 4 3 8
245 241 242 241 238 231 247 245 243 251 238 246 262 234 226 209 196 189 195 202 193 200 200 178 173 173 165 160 155 148 145 141 138 123 108 85 56 39 26 14 21 18 10 360 356 359 357 7 12
246 243 241 239 242 236 240 244 241 243 242 244 252 228 223 215 203 194 199 203 205 201 198 188 180 180 181 171 164 159 155 155 144 133 116 74 42 25 14 10 21 12 6 357 358 356 2 12 8
267 252 243 240 242 228 237 247 245 242 240 236 250 226 225 219 206 201 202 203 207 210 205 195 187 188 191 184 175 172 169 168 161 149 124 53 15 11 7 12 6 5 360 353 355 357 12 9 6
262 271 251 239 239 227 234 242 241 241 240 236 245 239 233 227 211 209 206 206 209 210 209 201 193 194 200 196 188 185 182 181 180 175 181 352 346 352 353 357 357 357 352 350 356 4 11 7 3
268 264 273 247 237 227 226 240 240 242 238 230 235 227 234 234 218 214 211 211 212 213 210 209 201 198 205 205 199 198 195 196 199 206 233 294 315 334 339 341 349 350 351 348 354 1 6 6 358
262 265 264 271 240 232 227 231 236 239 236 229 230 230 238 230 223 216 216 216 216 215 214 211 209 207 209 211 208 206 207 209 213 227 248 281 306 319 327 331 339 342 343 345 349 350 357 1 355
259 259 262 272 252 237 235 233 230 233 234 235 231 235 235 228 228 221 219 217 220 223 220 221 217 214 214 214 215 214 216 218 225 236 252 279 295 304 313 313 330 336 339 334 341 340 347 352 348
258 260 261 261 263 238 233 237 230 231 232 231 230 237 240 233 226 223 219 217 218 221 222 222 222 221 218 217 219 220 221 225 233 243 259 278 289 298 304 305 318 334 335 325 330 327 336 341 344
259 261 259 257 257 248 235 237 232 231 232 226 225 236 232 232 228 222 223 220 218 219 220 221 218 220 220 219 221 226 224 228 237 247 259 272 283 288 291 296 316 328 329 318 319 318 322 333 335
258 256 252 252 254 257 240 237 235 230 232 223 219 228 233 235 235 227 225 223 218 221 226 228 224 221 222 221 222 227 228 230 236 246 258 268 278 285 282 292 313 324 325 320 316 314 318 328 323
258 255 251 248 250 252 249 239 238 233 231 223 219 223 229 241 243 235 232 229 227 225 225 225 225 224 222 222 223 227 233 233 238 245 253 265 274 280 274 290 310 321 318 315 312 311 316 316 320
259 259 254 248 247 249 248 243 240 238 235 222 219 223 227 230 238 235 232 232 231 227 226 228 229 226 223 223 224 227 233 234 236 245 254 261 269 272 269 288 305 316 311 309 306 307 308 308 323
260 262 260 253 247 247 246 243 244 242 239 228 220 223 227 226 226 236 232 233 231 229 227 225 228 228 224 222 223 226 232 234 238 248 256 260 266 261 269 292 306 313 305 300 294 300 302 310 319
259 258 257 253 248 243 244 242 247 245 243 237 221 223 223 227 222 227 234 234 233 233 231 230 227 226 224 223 221 225 232 235 242 247 254 260 262 256 273 292 304 309 303 299 295 301 306 312 316
257 255 255 254 246 243 241 241 240 242 238 236 228 223 221 222 220 225 233 234 233 230 231 228 228 228 223 223 222 225 230 236 244 249 252 256 253 255 275 291 303 303 301 298 300 305 308 312 315
268 263 259 258 256 242 239 241 236 238 237 234 229 229 223 220 220 220 223 231 229 231 228 232 229 229 224 221 221 225 230 237 244 246 249 253 246 257 277 291 298 299 299 299 301 305 307 310 312
258 252 249 248 249 248 242 240 236 235 237 233 229 228 226 221 220 220 219 226 227 230 231 235 234 232 228 224 222 225 229 234 239 243 246 243 244 258 279 288 293 295 292 293 298 300 303 308 310
260 255 248 245 239 245 237 235 236 234 232 232 229 226 226 222 223 223 222 223 229 227 229 231 231 229 224 222 222 224 230 234 239 244 244 239 249 262 276 284 289 293 292 292 295 300 303 307 309
265 255 249 249 242 239 237 235 232 233 233 234 231 229 226 219 223 226 224 221 226 226 229 231 230 227 223 220 222 224 231 236 241 242 235 240 252 262 272 279 285 289 293 295 297 300 303 304 308
267 256 253 243 238 236 227 232 229 226 229 234 232 231 230 221 219 226 227 224 224 227 229 231 230 227 223 221 222 225 227 225 224 228 238 244 252 263 269 276 282 286 289 292 294 297 300 301 307
259 252 253 238 231 232 221 228 223 227 225 231 234 229 230 226 220 222 225 225 223 228 231 233 230 226 224 225 225 224 223 225 230 237 242 248 255 260 267 274 280 285 291 293 293 297 300 299 304
253 245 245 228 222 227 212 227 223 224 226 230 233 232 236 230 221 221 223 222 221 223 225 232 235 228 223 223 225 223 224 228 239 239 242 249 256 263 268 271 278 284 288 292 295 297 299 298 300
259 233 231 221 226 221 194 222 228 223 225 230 234 232 239 232 220 222 222 223 222 225 231 232 236 231 224 222 222 222 225 234 240 244 246 253 258 264 265 271 277 282 285 288 291 294 299 296 297
247 221 213 214 210 190 198 219 212 220 223 224 233 230 231 227 217 223 221 224 222 221 228 229 236 235 227 222 220 226 232 237 242 247 250 254 259 262 267 270 274 278 283 287 290 293 298 299 300
217 217 199 225 195 207 234 201 215 221 228 233 235 231 239 229 222 220 223 222 224 219 221 235 233 233 228 228 230 229 234 237 241 246 250 252 259 263 268 272 272 276 282 286 290 294 299 300 298
212 205 212 200 191 227 180 197 201 206 219 229 228 228 234 235 231 218 222 226 225 223 222 225 230 237 237 229 229 233 238 242 243 249 254 256 260 268 280 277 275 276 283 289 290 296 298 295 288
192 190 190 186 167 100 194 203 184 210 223 219 227 244 234 228 223 222 223 225 225 225 225 225 224 228 237 235 237 239 240 245 246 253 258 259 262 266 281 283 272 279 285 289 292 297 297 297 273
174 179 169 166 80 130 202 195 200 213 223 254 250 243 240 231 217 219 227 228 221 223 230 226 227 227 230 235 235 240 243 245 249 254 259 259 264 268 274 276 279 283 288 290 290 293 295 287 280